| time (UTC) | temp F | wind direction | speed MPH | gust MPH | rain 1hr in | rain 24hr in | rain mn in | humidity % | barometer mb |
| 20260503024434 | 73 | 95 | 0.0 | 0.0 | 0.00 | 0.11 | 0.11 | 93 | 1014.3 |
| 20260503023931 | 73 | 132 | 0.0 | 0.0 | 0.00 | 0.11 | 0.11 | 94 | 1014.3 |
| 20260503023428 | 73 | 162 | 0.0 | 0.0 | 0.00 | 0.11 | 0.11 | 94 | 1014.6 |
| 20260503022925 | 73 | 159 | 0.0 | 0.0 | 0.00 | 0.11 | 0.11 | 93 | 1014.5 |
| 20260503022420 | 73 | 97 | 0.0 | 0.0 | 0.00 | 0.11 | 0.11 | 93 | 1014.1 |
| 20260503021916 | 73 | 113 | 0.0 | 0.0 | 0.00 | 0.11 | 0.11 | 93 | 1014.1 |
| 20260503021412 | 73 | 137 | 0.0 | 0.0 | 0.00 | 0.11 | 0.11 | 93 | 1014.1 |
| 20260503020910 | 73 | 138 | 0.0 | 0.0 | 0.00 | 0.11 | 0.11 | 93 | 1014.0 |
| 20260503020407 | 73 | 147 | 0.0 | 0.0 | 0.00 | 0.11 | 0.11 | 93 | 1014.4 |
| 20260503015903 | 73 | 146 | 0.0 | 0.0 | 0.00 | 0.11 | 0.11 | 93 | 1014.2 |
| 20260503015401 | 73 | 163 | 0.0 | 0.0 | 0.00 | 0.11 | 0.11 | 93 | 1014.2 |
| 20260503014856 | 73 | 149 | 0.0 | 0.0 | 0.00 | 0.11 | 0.11 | 93 | 1014.2 |
| 20260503014354 | 73 | 152 | 0.0 | 0.0 | 0.00 | 0.11 | 0.11 | 93 | 1014.0 |
| 20260503013852 | 73 | 126 | 0.0 | 0.0 | 0.00 | 0.11 | 0.11 | 93 | 1013.9 |
| 20260503013348 | 73 | 154 | 1.0 | 2.0 | 0.00 | 0.11 | 0.11 | 93 | 1013.8 |
| 20260503012845 | 73 | 131 | 0.0 | 2.0 | 0.00 | 0.11 | 0.11 | 93 | 1014.0 |
| 20260503012343 | 73 | 144 | 0.0 | 0.0 | 0.00 | 0.11 | 0.11 | 93 | 1014.0 |
| 20260503011840 | 73 | 126 | 0.0 | 0.0 | 0.00 | 0.11 | 0.11 | 93 | 1013.9 |
| 20260503011337 | 73 | 264 | 0.0 | 0.0 | 0.00 | 0.11 | 0.11 | 93 | 1013.9 |
| 20260503010833 | 73 | 266 | 0.0 | 0.0 | 0.00 | 0.11 | 0.11 | 93 | 1013.9 |
| 20260503010330 | 73 | 269 | 0.0 | 0.0 | 0.00 | 0.11 | 0.11 | 92 | 1013.9 |
| 20260503005827 | 73 | 267 | 0.0 | 1.0 | 0.00 | 0.11 | 0.11 | 92 | 1013.9 |
| 20260503005325 | 73 | 279 | 2.0 | 2.0 | 0.00 | 0.11 | 0.11 | 93 | 1013.9 |
| 20260503004821 | 73 | 314 | 0.0 | 0.0 | 0.00 | 0.11 | 0.11 | 92 | 1013.9 |
| 20260503004318 | 73 | 312 | 1.0 | 1.0 | 0.00 | 0.11 | 0.11 | 92 | 1013.8 |
| 20260503003816 | 72 | 320 | 1.0 | 2.0 | 0.00 | 0.11 | 0.11 | 92 | 1013.7 |
| 20260503003313 | 72 | 299 | 2.0 | 2.0 | 0.00 | 0.11 | 0.11 | 92 | 1013.8 |
| 20260503002809 | 72 | 51 | 0.0 | 0.0 | 0.00 | 0.11 | 0.11 | 92 | 1013.8 |
| 20260503002307 | 72 | 346 | 0.0 | 1.0 | 0.00 | 0.11 | 0.11 | 92 | 1013.9 |
| 20260503001803 | 72 | 303 | 0.0 | 0.0 | 0.00 | 0.11 | 0.11 | 92 | 1014.0 |
| 20260503001259 | 73 | 47 | 0.0 | 0.0 | 0.00 | 0.11 | 0.11 | 91 | 1013.6 |
| 20260503000757 | 73 | 238 | 0.0 | 3.0 | 0.00 | 0.11 | 0.11 | 91 | 1013.7 |
| 20260503000254 | 73 | 260 | 2.0 | 2.0 | 0.00 | 0.11 | 0.11 | 91 | 1013.6 |
| 20260502235751 | 73 | 296 | 1.0 | 2.0 | 0.00 | 0.11 | 0.11 | 90 | 1013.5 |
| 20260502235249 | 73 | 267 | 2.0 | 3.0 | 0.05 | 0.11 | 0.11 | 89 | 1013.5 |
| 20260502234745 | 73 | 44 | 1.0 | 7.0 | 0.59 | 0.11 | 0.11 | 88 | 1013.2 |
| 20260502234242 | 75 | 346 | 3.0 | 13.0 | 0.61 | 0.10 | 0.10 | 84 | 1013.4 |
| 20260502233738 | 78 | 300 | 5.0 | 9.0 | 0.00 | 0.00 | 0.00 | 76 | 1013.5 |
| 20260502233235 | 80 | 352 | 10.0 | 13.0 | 0.00 | 0.00 | 0.00 | 73 | 1013.5 |
| 20260502232731 | 81 | 278 | 3.0 | 4.0 | 0.00 | 0.00 | 0.00 | 81 | 1012.8 |
| 20260502232228 | 81 | 158 | 2.0 | 6.0 | 0.00 | 0.00 | 0.00 | 81 | 1012.8 |
| 20260502231725 | 81 | 209 | 1.0 | 9.0 | 0.00 | 0.00 | 0.00 | 81 | 1012.7 |
| 20260502231222 | 82 | 300 | 2.0 | 7.0 | 0.00 | 0.00 | 0.00 | 80 | 1012.6 |
| 20260502230721 | 82 | 161 | 0.0 | 2.0 | 0.00 | 0.00 | 0.00 | 80 | 1012.6 |
| 20260502230219 | 82 | 188 | 3.0 | 4.0 | 0.00 | 0.00 | 0.00 | 79 | 1012.5 |
| 20260502225714 | 82 | 265 | 2.0 | 7.0 | 0.00 | 0.00 | 0.00 | 79 | 1012.5 |
| 20260502225212 | 82 | 186 | 0.0 | 3.0 | 0.00 | 0.00 | 0.00 | 78 | 1012.3 |
| 20260502224708 | 82 | 252 | 4.0 | 7.0 | 0.00 | 0.00 | 0.00 | 78 | 1012.3 |
| 20260502224205 | 83 | 235 | 3.0 | 8.0 | 0.00 | 0.00 | 0.00 | 79 | 1012.2 |
| 20260502223702 | 83 | 225 | 4.0 | 7.0 | 0.00 | 0.00 | 0.00 | 78 | 1012.1 |
| 20260502223201 | 83 | 277 | 1.0 | 9.0 | 0.00 | 0.00 | 0.00 | 78 | 1012.1 |
| 20260502222658 | 83 | 260 | 1.0 | 7.0 | 0.00 | 0.00 | 0.00 | 77 | 1012.0 |
| 20260502222154 | 84 | 219 | 3.0 | 8.0 | 0.00 | 0.00 | 0.00 | 76 | 1011.9 |
| 20260502221650 | 84 | 222 | 2.0 | 6.0 | 0.00 | 0.00 | 0.00 | 75 | 1011.9 |
| 20260502221147 | 84 | 236 | 2.0 | 7.0 | 0.00 | 0.00 | 0.00 | 74 | 1012.0 |
| 20260502220643 | 84 | 224 | 3.0 | 8.0 | 0.00 | 0.00 | 0.00 | 73 | 1012.1 |
| 20260502220139 | 84 | 190 | 3.0 | 7.0 | 0.00 | 0.00 | 0.00 | 73 | 1011.8 |
| 20260502215637 | 83 | 266 | 4.0 | 6.0 | 0.00 | 0.00 | 0.00 | 73 | 1011.8 |
| 20260502215133 | 84 | 171 | 0.0 | 7.0 | 0.00 | 0.00 | 0.00 | 73 | 1012.0 |
| 20260502214631 | 84 | 332 | 2.0 | 7.0 | 0.00 | 0.00 | 0.00 | 71 | 1011.8 |
| 20260502214128 | 85 | 258 | 4.0 | 13.0 | 0.00 | 0.00 | 0.00 | 69 | 1011.7 |
| 20260502213625 | 87 | 247 | 1.0 | 4.0 | 0.00 | 0.00 | 0.00 | 66 | 1011.7 |
| 20260502213122 | 88 | 282 | 2.0 | 6.0 | 0.00 | 0.00 | 0.00 | 65 | 1011.6 |
| 20260502212621 | 87 | 277 | 6.0 | 10.0 | 0.00 | 0.00 | 0.00 | 65 | 1011.4 |
| 20260502212119 | 88 | 229 | 7.0 | 9.0 | 0.00 | 0.00 | 0.00 | 63 | 1011.8 |
| 20260502211614 | 88 | 84 | 2.0 | 4.0 | 0.00 | 0.00 | 0.00 | 63 | 1011.6 |
| 20260502211112 | 87 | 185 | 2.0 | 7.0 | 0.00 | 0.00 | 0.00 | 65 | 1011.5 |
| 20260502210609 | 87 | 253 | 3.0 | 4.0 | 0.00 | 0.00 | 0.00 | 65 | 1011.7 |
| 20260502210106 | 87 | 179 | 2.0 | 8.0 | 0.00 | 0.00 | 0.00 | 66 | 1011.4 |
| 20260502205602 | 88 | 272 | 5.0 | 10.0 | 0.00 | 0.00 | 0.00 | 62 | 1011.6 |
| 20260502205059 | 88 | 275 | 4.0 | 6.0 | 0.00 | 0.00 | 0.00 | 62 | 1011.8 |
| 20260502204556 | 88 | 272 | 4.0 | 9.0 | 0.00 | 0.00 | 0.00 | 62 | 1011.6 |
| 20260502204054 | 88 | 282 | 4.0 | 9.0 | 0.00 | 0.00 | 0.00 | 61 | 1011.4 |
| 20260502203551 | 89 | 289 | 6.0 | 13.0 | 0.00 | 0.00 | 0.00 | 61 | 1011.3 |
| 20260502203048 | 90 | 261 | 6.0 | 7.0 | 0.00 | 0.00 | 0.00 | 57 | 1011.3 |
| 20260502202543 | 89 | 249 | 4.0 | 6.0 | 0.00 | 0.00 | 0.00 | 57 | 1011.2 |
| 20260502202042 | 89 | 290 | 3.0 | 4.0 | 0.00 | 0.00 | 0.00 | 58 | 1011.3 |
| 20260502201538 | 89 | 180 | 2.0 | 4.0 | 0.00 | 0.00 | 0.00 | 58 | 1011.2 |
| 20260502201034 | 90 | 279 | 4.0 | 6.0 | 0.00 | 0.00 | 0.00 | 58 | 1011.2 |
| 20260502200530 | 90 | 220 | 2.0 | 6.0 | 0.00 | 0.00 | 0.00 | 57 | 1011.2 |
| 20260502200028 | 89 | 237 | 4.0 | 7.0 | 0.00 | 0.00 | 0.00 | 59 | 1011.1 |
| 20260502195526 | 89 | 264 | 3.0 | 7.0 | 0.00 | 0.00 | 0.00 | 62 | 1011.1 |
| 20260502195021 | 89 | 265 | 2.0 | 9.0 | 0.00 | 0.00 | 0.00 | 58 | 1011.3 |
| 20260502194518 | 89 | 214 | 2.0 | 6.0 | 0.00 | 0.00 | 0.00 | 59 | 1011.4 |
| 20260502194014 | 89 | 286 | 2.0 | 8.0 | 0.00 | 0.00 | 0.00 | 59 | 1011.5 |
| 20260502193512 | 89 | 212 | 3.0 | 8.0 | 0.00 | 0.00 | 0.00 | 57 | 1011.4 |
| 20260502193009 | 90 | 286 | 4.0 | 11.0 | 0.00 | 0.00 | 0.00 | 56 | 1011.6 |
| 20260502192505 | 89 | 233 | 3.0 | 7.0 | 0.00 | 0.00 | 0.00 | 57 | 1011.7 |
| 20260502192002 | 89 | 179 | 4.0 | 6.0 | 0.00 | 0.00 | 0.00 | 57 | 1011.8 |
| 20260502191459 | 89 | 58 | 2.0 | 9.0 | 0.00 | 0.00 | 0.00 | 58 | 1011.8 |
| 20260502190956 | 89 | 305 | 7.0 | 10.0 | 0.00 | 0.00 | 0.00 | 57 | 1011.8 |
| 20260502190454 | 90 | 290 | 5.0 | 7.0 | 0.00 | 0.00 | 0.00 | 57 | 1012.0 |
| 20260502185950 | 89 | 271 | 6.0 | 8.0 | 0.00 | 0.00 | 0.00 | 57 | 1012.1 |
| 20260502185446 | 89 | 292 | 6.0 | 8.0 | 0.00 | 0.00 | 0.00 | 54 | 1012.0 |
| 20260502184942 | 89 | 261 | 6.0 | 11.0 | 0.00 | 0.00 | 0.00 | 56 | 1012.0 |
| 20260502184438 | 90 | 272 | 7.0 | 9.0 | 0.00 | 0.00 | 0.00 | 54 | 1012.0 |
| 20260502183934 | 89 | 263 | 4.0 | 7.0 | 0.00 | 0.00 | 0.00 | 54 | 1011.9 |
| 20260502183431 | 89 | 263 | 4.0 | 11.0 | 0.00 | 0.00 | 0.00 | 54 | 1012.2 |
| 20260502182926 | 90 | 268 | 4.0 | 8.0 | 0.00 | 0.00 | 0.00 | 55 | 1012.2 |
| 20260502182422 | 90 | 279 | 2.0 | 7.0 | 0.00 | 0.00 | 0.00 | 58 | 1012.2 |
| 20260502181918 | 90 | 281 | 5.0 | 8.0 | 0.00 | 0.00 | 0.00 | 55 | 1012.2 |
| 20260502181417 | 90 | 245 | 2.0 | 8.0 | 0.00 | 0.00 | 0.00 | 56 | 1012.4 |
| 20260502180915 | 89 | 166 | 3.0 | 6.0 | 0.00 | 0.00 | 0.00 | 57 | 1012.3 |
| 20260502180412 | 89 | 151 | 2.0 | 8.0 | 0.00 | 0.00 | 0.00 | 58 | 1012.3 |
| 20260502170330 | 89 | 173 | 4.0 | 9.0 | 0.00 | 0.00 | 0.00 | 61 | 1012.9 |
| 20260502164318 | 89 | 240 | 5.0 | 9.0 | 0.00 | 0.00 | 0.00 | 62 | 1012.4 |
| 20260502163814 | 88 | 290 | 2.0 | 7.0 | 0.00 | 0.00 | 0.00 | 64 | 1012.3 |
| 20260502163310 | 88 | 246 | 5.0 | 9.0 | 0.00 | 0.00 | 0.00 | 65 | 1012.5 |
| 20260502162808 | 88 | 277 | 3.0 | 7.0 | 0.00 | 0.00 | 0.00 | 67 | 1012.7 |
| 20260502162305 | 88 | 224 | 4.0 | 7.0 | 0.00 | 0.00 | 0.00 | 66 | 1012.5 |
| 20260502161801 | 89 | 308 | 2.0 | 6.0 | 0.00 | 0.00 | 0.00 | 65 | 1012.7 |
| 20260502161257 | 89 | 201 | 5.0 | 7.0 | 0.00 | 0.00 | 0.00 | 65 | 1012.7 |
| 20260502160755 | 88 | 172 | 1.0 | 3.0 | 0.00 | 0.00 | 0.00 | 66 | 1012.8 |
| 20260502160254 | 88 | 301 | 3.0 | 6.0 | 0.00 | 0.00 | 0.00 | 66 | 1012.5 |
| 20260502152223 | 86 | 171 | 1.0 | 6.0 | 0.00 | 0.00 | 0.00 | 70 | 1012.5 |
| 20260502151721 | 87 | 178 | 2.0 | 8.0 | 0.00 | 0.00 | 0.00 | 69 | 1012.5 |
| 20260502151218 | 87 | 186 | 1.0 | 4.0 | 0.00 | 0.00 | 0.00 | 70 | 1012.6 |
| 20260502150715 | 87 | 151 | 0.0 | 7.0 | 0.00 | 0.00 | 0.00 | 70 | 1012.7 |
| 20260502150212 | 87 | 188 | 5.0 | 7.0 | 0.00 | 0.00 | 0.00 | 69 | 1012.7 |
| 20260502130600 | 79 | 197 | 1.0 | 3.0 | 0.00 | 0.00 | 0.00 | 86 | 1011.8 |
| 20260502123543 | 75 | 172 | 0.0 | 3.0 | 0.00 | 0.00 | 0.00 | 90 | 1011.9 |
| 20260502123040 | 74 | 140 | 0.0 | 2.0 | 0.00 | 0.00 | 0.00 | 90 | 1011.7 |
| 20260502122536 | 74 | 193 | 0.0 | 1.0 | 0.00 | 0.00 | 0.00 | 91 | 1011.8 |
| 20260502122034 | 73 | 175 | 0.0 | 3.0 | 0.00 | 0.00 | 0.00 | 91 | 1011.8 |
| 20260502121531 | 73 | 183 | 1.0 | 1.0 | 0.00 | 0.00 | 0.00 | 92 | 1011.9 |
| 20260502121029 | 72 | 210 | 0.0 | 2.0 | 0.00 | 0.00 | 0.00 | 92 | 1011.8 |
| 20260502120525 | 72 | 136 | 0.0 | 1.0 | 0.00 | 0.00 | 0.00 | 92 | 1011.9 |
| 20260502115520 | 72 | 190 | 0.0 | 2.0 | 0.00 | 0.00 | 0.00 | 93 | 1011.8 |
| 20260502115015 | 71 | 190 | 0.0 | 2.0 | 0.00 | 0.00 | 0.00 | 92 | 1011.8 |
| 20260502114512 | 71 | 125 | 1.0 | 2.0 | 0.00 | 0.00 | 0.00 | 92 | 1011.7 |
| 20260502114009 | 71 | 165 | 0.0 | 2.0 | 0.00 | 0.00 | 0.00 | 93 | 1011.6 |
| 20260502113507 | 71 | 173 | 2.0 | 2.0 | 0.00 | 0.00 | 0.00 | 93 | 1011.7 |
| 20260502113005 | 71 | 205 | 0.0 | 2.0 | 0.00 | 0.00 | 0.00 | 93 | 1011.6 |
| 20260502112502 | 71 | 203 | 0.0 | 1.0 | 0.00 | 0.00 | 0.00 | 93 | 1011.6 |
| 20260502112000 | 72 | 152 | 1.0 | 4.0 | 0.00 | 0.00 | 0.00 | 93 | 1011.6 |
| 20260502111457 | 71 | 133 | 0.0 | 0.0 | 0.00 | 0.00 | 0.00 | 93 | 1011.8 |
| 20260502110954 | 71 | 137 | 0.0 | 0.0 | 0.00 | 0.00 | 0.00 | 93 | 1011.8 |
| 20260502110452 | 71 | 140 | 0.0 | 0.0 | 0.00 | 0.00 | 0.00 | 93 | 1011.7 |
| 20260502105949 | 71 | 106 | 0.0 | 1.0 | 0.00 | 0.00 | 0.00 | 93 | 1011.6 |
| 20260502105446 | 71 | 138 | 0.0 | 0.0 | 0.00 | 0.00 | 0.00 | 93 | 1011.4 |
| 20260502104944 | 71 | 128 | 0.0 | 0.0 | 0.00 | 0.00 | 0.00 | 93 | 1011.5 |
| 20260502104441 | 71 | 134 | 0.0 | 0.0 | 0.00 | 0.00 | 0.00 | 93 | 1011.7 |
| 20260502103938 | 71 | 138 | 0.0 | 0.0 | 0.00 | 0.00 | 0.00 | 93 | 1011.5 |
| 20260502103436 | 71 | 135 | 0.0 | 0.0 | 0.00 | 0.00 | 0.00 | 93 | 1011.6 |
| 20260502102933 | 71 | 131 | 0.0 | 0.0 | 0.00 | 0.00 | 0.00 | 93 | 1011.4 |
| 20260502102429 | 71 | 133 | 0.0 | 0.0 | 0.00 | 0.00 | 0.00 | 93 | 1011.6 |
| 20260502101926 | 71 | 134 | 0.0 | 0.0 | 0.00 | 0.00 | 0.00 | 92 | 1011.7 |
| 20260502101425 | 71 | 137 | 0.0 | 0.0 | 0.00 | 0.00 | 0.00 | 92 | 1011.8 |
| 20260502100922 | 71 | 111 | 0.0 | 1.0 | 0.00 | 0.00 | 0.00 | 92 | 1011.6 |
| 20260502100422 | 71 | 143 | 0.0 | 0.0 | 0.00 | 0.00 | 0.00 | 92 | 1011.6 |
| 20260502091355 | 71 | 135 | 0.0 | 0.0 | 0.00 | 0.00 | 0.00 | 92 | 1011.8 |
| 20260502090853 | 71 | 125 | 0.0 | 2.0 | 0.00 | 0.00 | 0.00 | 92 | 1011.9 |
| 20260502090350 | 71 | 137 | 0.0 | 1.0 | 0.00 | 0.00 | 0.00 | 92 | 1011.8 |
| 20260502071245 | 70 | 144 | 0.0 | 0.0 | 0.00 | 0.00 | 0.00 | 93 | 1012.2 |
| 20260502070743 | 70 | 136 | 0.0 | 1.0 | 0.00 | 0.00 | 0.00 | 93 | 1012.0 |
| 20260502070240 | 70 | 109 | 0.0 | 3.0 | 0.00 | 0.00 | 0.00 | 93 | 1012.3 |
| 20260502065739 | 70 | 136 | 0.0 | 0.0 | 0.00 | 0.00 | 0.00 | 94 | 1012.4 |
| 20260502065236 | 70 | 65 | 3.0 | 4.0 | 0.00 | 0.00 | 0.00 | 94 | 1012.5 |
| 20260502064735 | 69 | 107 | 1.0 | 2.0 | 0.00 | 0.00 | 0.00 | 94 | 1012.2 |
| 20260502064232 | 69 | 136 | 0.0 | 1.0 | 0.00 | 0.00 | 0.00 | 94 | 1012.0 |
| 20260502063729 | 68 | 113 | 0.0 | 1.0 | 0.00 | 0.00 | 0.00 | 94 | 1012.2 |
| 20260502063227 | 67 | 94 | 0.0 | 1.0 | 0.00 | 0.00 | 0.00 | 92 | 1012.2 |
| 20260502062724 | 68 | 74 | 0.0 | 0.0 | 0.00 | 0.00 | 0.00 | 93 | 1012.2 |
| 20260502062222 | 68 | 58 | 0.0 | 0.0 | 0.00 | 0.00 | 0.00 | 93 | 1012.0 |
| 20260502061720 | 68 | 99 | 0.0 | 0.0 | 0.00 | 0.00 | 0.00 | 93 | 1012.1 |
| 20260502061217 | 68 | 99 | 0.0 | 0.0 | 0.00 | 0.00 | 0.00 | 93 | 1012.1 |
| 20260502060712 | 68 | 99 | 0.0 | 0.0 | 0.00 | 0.00 | 0.00 | 93 | 1012.0 |
| 20260502060209 | 68 | 99 | 0.0 | 0.0 | 0.00 | 0.00 | 0.00 | 92 | 1012.1 |
| 20260502055707 | 68 | 99 | 0.0 | 0.0 | 0.00 | 0.00 | 0.00 | 92 | 1011.9 |
| 20260502055204 | 68 | 99 | 0.0 | 0.0 | 0.00 | 0.00 | 0.00 | 92 | 1012.0 |
| 20260502054703 | 68 | 97 | 0.0 | 0.0 | 0.00 | 0.00 | 0.00 | 92 | 1012.1 |
| 20260502054200 | 68 | 74 | 0.0 | 0.0 | 0.00 | 0.00 | 0.00 | 92 | 1011.9 |
| 20260502053657 | 68 | 60 | 0.0 | 0.0 | 0.00 | 0.00 | 0.00 | 92 | 1011.9 |
| 20260502053154 | 68 | 62 | 0.0 | 0.0 | 0.00 | 0.00 | 0.00 | 91 | 1012.2 |
| 20260502052652 | 69 | 91 | 0.0 | 0.0 | 0.00 | 0.00 | 0.00 | 91 | 1012.0 |
| 20260502052150 | 69 | 106 | 0.0 | 0.0 | 0.00 | 0.00 | 0.00 | 91 | 1012.1 |
| 20260502051648 | 69 | 106 | 0.0 | 0.0 | 0.00 | 0.00 | 0.00 | 91 | 1012.2 |
| 20260502051146 | 69 | 106 | 0.0 | 0.0 | 0.00 | 0.00 | 0.00 | 91 | 1012.4 |
| 20260502050642 | 69 | 106 | 0.0 | 0.0 | 0.00 | 0.00 | 0.00 | 91 | 1012.0 |
| 20260502050139 | 69 | 106 | 0.0 | 0.0 | 0.00 | 0.00 | 0.00 | 90 | 1012.4 |
| 20260502045635 | 69 | 106 | 0.0 | 0.0 | 0.00 | 0.00 | 0.00 | 90 | 1012.2 |
| 20260502045133 | 70 | 107 | 0.0 | 0.0 | 0.00 | 0.00 | 0.00 | 90 | 1012.2 |
| 20260502044629 | 70 | 130 | 0.0 | 0.0 | 0.00 | 0.00 | 0.00 | 90 | 1012.1 |
| 20260502044126 | 70 | 140 | 0.0 | 0.0 | 0.00 | 0.00 | 0.00 | 90 | 1012.1 |
| 20260502043624 | 71 | 140 | 0.0 | 0.0 | 0.00 | 0.00 | 0.00 | 90 | 1012.2 |
| 20260502043121 | 71 | 142 | 0.0 | 0.0 | 0.00 | 0.00 | 0.00 | 91 | 1012.2 |
| 20260502042620 | 71 | 143 | 0.0 | 0.0 | 0.00 | 0.00 | 0.00 | 91 | 1012.2 |
| 20260502042118 | 71 | 143 | 0.0 | 0.0 | 0.00 | 0.00 | 0.00 | 90 | 1012.1 |
| 20260502041616 | 71 | 143 | 0.0 | 0.0 | 0.00 | 0.00 | 0.00 | 89 | 1012.2 |
| 20260502041113 | 71 | 143 | 0.0 | 0.0 | 0.00 | 0.00 | 0.00 | 89 | 1012.3 |
| 20260502040609 | 71 | 143 | 0.0 | 0.0 | 0.00 | 0.00 | 0.00 | 89 | 1012.5 |
| 20260502040107 | 71 | 143 | 0.0 | 0.0 | 0.00 | 0.00 | 0.00 | 88 | 1012.3 |
| 20260502035602 | 71 | 143 | 0.0 | 0.0 | 0.00 | 0.00 | 0.00 | 88 | 1012.3 |
| 20260502035100 | 71 | 143 | 0.0 | 0.0 | 0.00 | 0.00 | 0.00 | 88 | 1012.4 |
| 20260502034557 | 72 | 143 | 0.0 | 0.0 | 0.00 | 0.00 | 0.00 | 87 | 1012.7 |
| 20260502034056 | 72 | 143 | 0.0 | 0.0 | 0.00 | 0.00 | 0.00 | 87 | 1012.5 |
| 20260502033554 | 72 | 155 | 0.0 | 0.0 | 0.00 | 0.00 | 0.00 | 87 | 1012.6 |
| 20260502033051 | 73 | 157 | 0.0 | 0.0 | 0.00 | 0.00 | 0.00 | 87 | 1012.6 |
| 20260502032546 | 73 | 160 | 0.0 | 0.0 | 0.00 | 0.00 | 0.00 | 87 | 1012.5 |
| 20260502032043 | 73 | 160 | 0.0 | 0.0 | 0.00 | 0.00 | 0.00 | 86 | 1012.4 |
| 20260502031541 | 74 | 160 | 0.0 | 0.0 | 0.00 | 0.00 | 0.00 | 85 | 1012.5 |
| 20260502031039 | 74 | 160 | 0.0 | 0.0 | 0.00 | 0.00 | 0.00 | 84 | 1012.6 |
| 20260502030538 | 75 | 161 | 0.0 | 0.0 | 0.00 | 0.00 | 0.00 | 84 | 1012.6 |
| 20260502030035 | 75 | 169 | 0.0 | 0.0 | 0.00 | 0.00 | 0.00 | 83 | 1012.7 |
| 20260502025532 | 75 | 172 | 0.0 | 0.0 | 0.00 | 0.00 | 0.00 | 83 | 1012.6 |
| 20260502025030 | 75 | 172 | 0.0 | 0.0 | 0.00 | 0.00 | 0.00 | 83 | 1012.5 |